|
NORAD ID: 13482 Int'l Code: 1981-053GE
Perigee: 736.5 km
Apogee: 829.2 km
Inclination: 82.9 °
Period: 100.4 minutes
Semi major axis: 7153 km
Launch date: June 4, 1981
Source: Commonwealth of Independent States (former USSR) (CIS)
Note: This is SATELLITE DEBRIS
Two Line Element Set (TLE):
1 13482U 81053GE 13143.64837652 .00006499 00000-0 22318-2 0 3640
2 13482 082.9102 191.1510 0064843 300.3069 179.1340 14.34806070582773
Source:
NASA's NSSDC Master Catalog entry for COSMOS 1275 DEB
|